WMT7M LRIA-LHBP

Flight info

Callsign WMT7M
Flight time 0h 43m
Altitude 10000
Route ARPIG P133 TOMUC/N0456F360 DCT HUMOR DCT BUDOP DCT KEZAL
Aircraft A320/M-SDE3FGHIRWY/LB1

Departure

Time 2026-04-20 19:36
Airport Iaşi International Airport (LRIA)

Arrival

Time 2026-04-20 20:20
Airport Budapest Liszt Ferenc International Airport (LHBP)
Time Latitude Longitude Altitude Speed Heading
2026-04-20 19:20 47.17725 27.61848 378 ft 0 kts 235°
2026-04-20 19:27 47.17733 27.61865 377 ft 3 kts 235°
2026-04-20 19:28 47.17743 27.61885 377 ft 2 kts 240°
2026-04-20 19:28 47.17751 27.61900 377 ft 0 kts 187°
2026-04-20 19:32 47.17754 27.61901 378 ft 0 kts 173°
2026-04-20 19:32 47.17760 27.61900 378 ft 1 kts 151°
2026-04-20 19:33 47.17682 27.61958 375 ft 25 kts 155°
2026-04-20 19:33 47.17509 27.62078 369 ft 29 kts 147°
2026-04-20 19:33 47.17331 27.62250 362 ft 27 kts 149°
2026-04-20 19:33 47.17290 27.62439 364 ft 16 kts 59°
2026-04-20 19:34 47.17346 27.62578 361 ft 16 kts 65°
2026-04-20 19:34 47.17302 27.62711 358 ft 17 kts 166°
2026-04-20 19:34 47.17186 27.62804 354 ft 21 kts 146°
2026-04-20 19:34 47.17124 27.62932 350 ft 5 kts 58°
2026-04-20 19:35 47.17137 27.62926 359 ft 2 kts 328°
2026-04-20 19:35 47.17152 27.62898 358 ft 11 kts 307°
2026-04-20 19:35 47.17216 27.62812 355 ft 12 kts 324°
2026-04-20 19:35 47.17284 27.62745 359 ft 13 kts 329°
2026-04-20 19:36 47.17538 27.62519 365 ft 78 kts 329°
2026-04-20 19:36 47.18162 27.61961 387 ft 129 kts 328°
2026-04-20 19:36 47.19020 27.61216 642 ft 147 kts 327°
2026-04-20 19:36 47.19832 27.60435 1267 ft 136 kts 327°
2026-04-20 19:37 47.20696 27.59615 1473 ft 159 kts 326°
2026-04-20 19:37 47.21711 27.58731 1740 ft 181 kts 333°
2026-04-20 19:37 47.22931 27.57904 2020 ft 206 kts 335°
2026-04-20 19:37 47.24155 27.56628 2289 ft 229 kts 306°
2026-04-20 19:38 47.25008 27.54589 2529 ft 237 kts 297°
2026-04-20 19:38 47.25750 27.52415 2788 ft 238 kts 295°
2026-04-20 19:38 47.26471 27.50217 3045 ft 239 kts 295°
2026-04-20 19:38 47.27208 27.48008 3294 ft 240 kts 296°
2026-04-20 19:39 47.27965 27.45812 3539 ft 241 kts 297°
2026-04-20 19:39 47.28737 27.43611 3796 ft 242 kts 297°
2026-04-20 19:39 47.29519 27.41411 4045 ft 243 kts 297°
2026-04-20 19:39 47.30311 27.39206 4297 ft 244 kts 297°
2026-04-20 19:40 47.31109 27.36996 4555 ft 245 kts 298°
2026-04-20 19:40 47.31915 27.34780 4798 ft 245 kts 298°
2026-04-20 19:40 47.32726 27.32556 4964 ft 247 kts 298°
2026-04-20 19:40 47.33538 27.30328 5017 ft 247 kts 298°
2026-04-20 19:41 47.34372 27.28039 5191 ft 264 kts 298°
2026-04-20 19:41 47.35250 27.25623 5980 ft 270 kts 298°
2026-04-20 19:41 47.36141 27.23169 6825 ft 273 kts 298°
2026-04-20 19:41 47.37043 27.20687 7601 ft 277 kts 298°
2026-04-20 19:42 47.37957 27.18169 8400 ft 280 kts 298°
2026-04-20 19:42 47.38882 27.15618 9183 ft 284 kts 298°
2026-04-20 19:42 47.39820 27.13025 9797 ft 289 kts 298°
2026-04-20 19:42 47.40768 27.10407 9965 ft 289 kts 298°
2026-04-20 19:43 47.41714 27.07789 10007 ft 289 kts 298°
2026-04-20 19:43 47.42658 27.05173 10011 ft 288 kts 298°
2026-04-20 19:43 47.43600 27.02558 10007 ft 288 kts 298°
2026-04-20 19:43 47.44540 26.99945 10008 ft 288 kts 298°
2026-04-20 19:44 47.45481 26.97332 10011 ft 288 kts 298°
2026-04-20 19:44 47.47594 26.91438 10000 ft 288 kts 297°
2026-04-20 19:44 47.50792 26.80628 10011 ft 288 kts 274°
2026-04-20 19:44 47.50894 26.68756 10019 ft 290 kts 271°
2026-04-20 19:45 47.51034 26.56909 10002 ft 288 kts 271°
2026-04-20 19:45 47.51140 26.45050 10008 ft 289 kts 270°
2026-04-20 19:45 47.51229 26.33135 10019 ft 290 kts 270°
2026-04-20 19:45 47.51309 26.21206 10027 ft 290 kts 270°
2026-04-20 19:46 47.51381 26.09295 10026 ft 290 kts 270°
2026-04-20 19:46 47.51439 25.97362 10032 ft 290 kts 270°
2026-04-20 19:46 47.51138 25.85475 10014 ft 290 kts 255°
2026-04-20 19:46 47.49137 25.73763 10022 ft 290 kts 256°
2026-04-20 19:47 47.47209 25.62314 10018 ft 291 kts 256°
2026-04-20 19:47 47.45203 25.50531 10019 ft 292 kts 256°
2026-04-20 19:47 47.43234 25.39019 10022 ft 293 kts 256°
2026-04-20 19:47 47.41218 25.27362 10026 ft 293 kts 256°
2026-04-20 19:48 47.39179 25.15587 10030 ft 292 kts 256°
2026-04-20 19:48 47.37156 25.03970 10026 ft 292 kts 256°
2026-04-20 19:48 47.35123 24.92407 10029 ft 292 kts 255°
2026-04-20 19:48 47.33075 24.80831 10029 ft 291 kts 255°
2026-04-20 19:49 47.31012 24.69296 10032 ft 291 kts 255°
2026-04-20 19:49 47.28951 24.57779 10019 ft 286 kts 255°
2026-04-20 19:49 47.27044 24.47202 10071 ft 274 kts 255°
2026-04-20 19:49 47.24649 24.33990 10029 ft 368 kts 255°
2026-04-20 19:50 47.22172 24.20469 9524 ft 308 kts 255°
2026-04-20 19:50 47.20133 24.09409 9966 ft 283 kts 255°
2026-04-20 19:50 47.18028 23.98050 10033 ft 281 kts 255°
2026-04-20 19:50 47.15916 23.86719 10034 ft 288 kts 255°
2026-04-20 19:51 47.13780 23.75337 9999 ft 289 kts 255°
2026-04-20 19:51 47.11628 23.63978 10006 ft 288 kts 255°
2026-04-20 19:51 47.09483 23.52611 10010 ft 289 kts 255°
2026-04-20 19:51 47.07315 23.41254 10003 ft 289 kts 254°
2026-04-20 19:52 47.05132 23.29924 10013 ft 289 kts 254°
2026-04-20 19:52 47.02945 23.18606 9998 ft 289 kts 254°
2026-04-20 19:52 47.00751 23.07274 10017 ft 289 kts 254°
2026-04-20 19:52 46.98534 22.95932 10022 ft 290 kts 254°
2026-04-20 19:53 46.96301 22.84578 10025 ft 291 kts 254°
2026-04-20 19:53 46.94053 22.73225 10023 ft 290 kts 254°
2026-04-20 19:53 46.91789 22.61881 10027 ft 290 kts 253°
2026-04-20 19:53 46.89519 22.50556 10022 ft 290 kts 253°
2026-04-20 19:54 46.87243 22.39260 10022 ft 290 kts 253°
2026-04-20 19:54 46.84959 22.27936 10032 ft 290 kts 253°
2026-04-20 19:54 46.82665 22.16639 10030 ft 289 kts 253°
2026-04-20 19:54 46.80365 22.05425 10027 ft 289 kts 253°
2026-04-20 19:55 46.78047 21.94183 10031 ft 289 kts 253°
2026-04-20 19:55 46.75725 21.82976 10028 ft 289 kts 253°
2026-04-20 19:55 46.73394 21.71780 10027 ft 289 kts 253°
2026-04-20 19:55 46.71047 21.60586 10027 ft 289 kts 253°
2026-04-20 19:56 46.70025 21.55728 10025 ft 289 kts 253°
2026-04-20 19:56 46.69364 21.51945 10023 ft 288 kts 264°
2026-04-20 19:56 46.69427 21.49040 10032 ft 288 kts 280°
2026-04-20 19:56 46.70036 21.46269 10025 ft 288 kts 296°
2026-04-20 19:57 46.70995 21.43711 10022 ft 288 kts 299°
2026-04-20 19:57 46.71963 21.41151 10025 ft 288 kts 298°
2026-04-20 19:57 46.72927 21.38588 10025 ft 288 kts 298°
2026-04-20 19:57 46.73889 21.36030 10022 ft 289 kts 298°
2026-04-20 19:58 46.74855 21.33457 10023 ft 289 kts 298°
2026-04-20 19:58 46.75818 21.30885 10024 ft 289 kts 298°
2026-04-20 19:58 46.76778 21.28316 10026 ft 289 kts 298°
2026-04-20 19:58 46.77736 21.25745 10024 ft 289 kts 298°
2026-04-20 19:59 46.78697 21.23171 10026 ft 289 kts 298°
2026-04-20 19:59 46.79660 21.20595 10027 ft 289 kts 298°
2026-04-20 19:59 46.80623 21.18022 10026 ft 289 kts 298°
2026-04-20 19:59 46.81583 21.15450 10028 ft 289 kts 298°
2026-04-20 20:00 46.82542 21.12871 10027 ft 289 kts 298°
2026-04-20 20:00 46.83498 21.10295 10027 ft 289 kts 298°
2026-04-20 20:00 46.84455 21.07718 10025 ft 289 kts 298°
2026-04-20 20:00 46.85414 21.05139 10027 ft 289 kts 298°
2026-04-20 20:01 46.86369 21.02560 10028 ft 289 kts 298°
2026-04-20 20:01 46.87323 20.99978 10030 ft 289 kts 298°
2026-04-20 20:01 46.88188 20.97325 10031 ft 289 kts 294°
2026-04-20 20:01 46.88989 20.94628 10027 ft 289 kts 292°
2026-04-20 20:02 46.89763 20.91922 10030 ft 289 kts 292°
2026-04-20 20:02 46.90532 20.89207 10027 ft 289 kts 292°
2026-04-20 20:02 46.91301 20.86494 10029 ft 289 kts 292°
2026-04-20 20:02 46.92074 20.83784 10027 ft 289 kts 292°
2026-04-20 20:03 46.92848 20.81076 10028 ft 289 kts 292°
2026-04-20 20:03 46.93625 20.78365 10029 ft 289 kts 292°
2026-04-20 20:03 46.94402 20.75655 10028 ft 289 kts 292°
2026-04-20 20:03 46.95177 20.72947 10028 ft 289 kts 292°
2026-04-20 20:04 46.95952 20.70231 10028 ft 289 kts 292°
2026-04-20 20:04 46.96725 20.67522 10031 ft 289 kts 292°
2026-04-20 20:04 46.97500 20.64804 10027 ft 289 kts 292°
2026-04-20 20:04 46.98274 20.62089 10027 ft 289 kts 292°
2026-04-20 20:05 46.98787 20.60293 10029 ft 289 kts 292°
2026-04-20 20:05 46.99563 20.57577 10030 ft 289 kts 292°
2026-04-20 20:05 47.00340 20.54862 10031 ft 289 kts 292°
2026-04-20 20:05 47.01113 20.52144 10030 ft 289 kts 292°
2026-04-20 20:06 47.01886 20.49421 10032 ft 289 kts 292°
2026-04-20 20:06 47.02656 20.46702 10029 ft 289 kts 292°
2026-04-20 20:06 47.03426 20.43980 10032 ft 289 kts 292°
2026-04-20 20:06 47.04195 20.41255 10030 ft 289 kts 292°
2026-04-20 20:07 47.04962 20.38532 10033 ft 289 kts 292°
2026-04-20 20:07 47.05728 20.35809 10032 ft 289 kts 292°
2026-04-20 20:07 47.06496 20.33087 10031 ft 289 kts 292°
2026-04-20 20:07 47.07263 20.30363 10029 ft 289 kts 292°
2026-04-20 20:08 47.08028 20.27645 10011 ft 287 kts 292°
2026-04-20 20:08 47.08771 20.25001 10004 ft 273 kts 292°
2026-04-20 20:08 47.09474 20.22488 10005 ft 260 kts 292°
2026-04-20 20:08 47.10141 20.20098 10001 ft 247 kts 292°
2026-04-20 20:09 47.10781 20.17805 10007 ft 241 kts 292°
2026-04-20 20:09 47.11417 20.15535 10015 ft 240 kts 292°
2026-04-20 20:09 47.12052 20.13266 10008 ft 240 kts 292°
2026-04-20 20:09 47.12684 20.10997 10006 ft 240 kts 292°
2026-04-20 20:10 47.13317 20.08725 10009 ft 240 kts 292°
2026-04-20 20:10 47.13947 20.06454 10012 ft 240 kts 292°
2026-04-20 20:10 47.14579 20.04183 10012 ft 240 kts 292°
2026-04-20 20:10 47.15214 20.01907 9949 ft 241 kts 292°
2026-04-20 20:11 47.15845 19.99644 9825 ft 239 kts 292°
2026-04-20 20:11 47.16474 19.97379 9699 ft 239 kts 292°
2026-04-20 20:11 47.17099 19.95123 9571 ft 238 kts 292°
2026-04-20 20:11 47.17724 19.92868 9449 ft 238 kts 292°
2026-04-20 20:12 47.18348 19.90617 9324 ft 237 kts 292°
2026-04-20 20:12 47.18967 19.88370 9198 ft 237 kts 292°
2026-04-20 20:12 47.19590 19.86111 8903 ft 241 kts 292°
2026-04-20 20:13 47.20877 19.81446 8173 ft 247 kts 292°
2026-04-20 20:13 47.21515 19.79132 7978 ft 242 kts 292°
2026-04-20 20:13 47.22149 19.76821 7593 ft 246 kts 291°
2026-04-20 20:13 47.22794 19.74471 7237 ft 248 kts 292°
2026-04-20 20:14 47.23439 19.72123 6962 ft 247 kts 292°
2026-04-20 20:14 47.24081 19.69787 6686 ft 246 kts 292°
2026-04-20 20:14 47.24719 19.67464 6408 ft 244 kts 292°
2026-04-20 20:14 47.25355 19.65151 6134 ft 243 kts 291°
2026-04-20 20:15 47.25985 19.62852 5867 ft 241 kts 292°
2026-04-20 20:15 47.26611 19.60567 5581 ft 240 kts 291°
2026-04-20 20:15 47.27229 19.58296 5305 ft 238 kts 291°
2026-04-20 20:15 47.27842 19.56039 5027 ft 237 kts 291°
2026-04-20 20:16 47.28451 19.53795 4759 ft 235 kts 291°
2026-04-20 20:16 47.29056 19.51569 4482 ft 233 kts 291°
2026-04-20 20:16 47.29827 19.49451 4198 ft 231 kts 309°
2026-04-20 20:16 47.30905 19.47710 3924 ft 229 kts 312°
2026-04-20 20:17 47.31986 19.45979 3546 ft 232 kts 312°
2026-04-20 20:17 47.33078 19.44215 3112 ft 238 kts 312°
2026-04-20 20:17 47.34197 19.42417 2762 ft 235 kts 312°
2026-04-20 20:17 47.35295 19.40653 2452 ft 226 kts 312°
2026-04-20 20:18 47.36333 19.38986 2151 ft 216 kts 312°
2026-04-20 20:18 47.37308 19.37419 1876 ft 201 kts 312°
2026-04-20 20:18 47.38225 19.35944 1637 ft 183 kts 312°
2026-04-20 20:18 47.39034 19.34642 1399 ft 167 kts 312°
2026-04-20 20:19 47.39800 19.33408 1190 ft 156 kts 312°
2026-04-20 20:19 47.40519 19.32249 989 ft 149 kts 312°
2026-04-20 20:19 47.41192 19.31162 792 ft 140 kts 311°
2026-04-20 20:19 47.41834 19.30107 689 ft 137 kts 311°
2026-04-20 20:20 47.42476 19.29076 505 ft 135 kts 312°
2026-04-20 20:20 47.43033 19.28177 486 ft 97 kts 315°
2026-04-20 20:20 47.43383 19.27646 485 ft 48 kts 313°
2026-04-20 20:20 47.43570 19.27353 491 ft 37 kts 313°
2026-04-20 20:21 47.43710 19.27046 484 ft 36 kts 296°
2026-04-20 20:21 47.43745 19.26916 491 ft 0 kts 289°
2026-04-20 20:21 47.43747 19.26907 487 ft 2 kts 289°
2026-04-20 20:21 47.43754 19.26868 491 ft 6 kts 283°
2026-04-20 20:22 47.43767 19.26789 487 ft 10 kts 284°
2026-04-20 20:22 47.43784 19.26671 489 ft 13 kts 280°
2026-04-20 20:22 47.43791 19.26524 483 ft 15 kts 279°
2026-04-20 20:22 47.43765 19.26438 486 ft 7 kts 229°
2026-04-20 20:23 47.43723 19.26376 484 ft 10 kts 223°
2026-04-20 20:23 47.43661 19.26358 480 ft 11 kts 133°
2026-04-20 20:23 47.43614 19.26393 479 ft 4 kts 195°
2026-04-20 20:23 47.43589 19.26359 476 ft 6 kts 223°
2026-04-20 20:24 47.43584 19.26352 479 ft 0 kts 223°